This demonstration page uses our WeatherBlox Daily Observations layout. Learn more.

Left ArrowRight Arrow

Hourly Observations for May 20, 2021

Temp ( °F °C ) Dew Point ( °F °C ) Humidity (%) Winds ( mph kmh ) Pressure ( in mb ) Visibility ( mi km ) Precip ( " mm )
12:53 am 00:53 Clear 68 20 62 16.7 81 81 SE 12 19 29.75 1007 10 16 0.00 0.00
1:53 am 01:53 Clear 66 18.9 61 16.1 84 84 SE 13 20 29.73 1007 10 16 0.00 0.00
2:53 am 02:53 Clear 65 18.3 61 16.1 87 87 SE 13 20 29.71 1006 9 14 0.00 0.00
3:53 am 03:53 Clear 64 17.8 61 16.1 90 90 SE 12 19 29.70 1006 8 13 0.00 0.00
4:53 am 04:53 Clear 63 17.2 60 15.6 90 90 ESE 8 13 29.70 1006 9 14 0.00 0.00
5:53 am 05:53 Clear 63 17.2 59 15 87 87 ESE 12 19 29.71 1006 9 14 0.00 0.00
6:53 am 06:53 Sunny 62 16.7 59 15 90 90 ESE 8 13 29.73 1007 8 13 0.00 0.00
7:53 am 07:53 Sunny 63 17.2 59 15 87 87 E 6 9 29.76 1008 10 16 0.00 0.00
8:53 am 08:53 Sunny 66 18.9 58 14.4 75 75 E 8 13 29.79 1009 10 16 0.00 0.00
9:53 am 09:53 Sunny 70 21.1 58 14.4 66 66 SE 8 13 29.80 1009 10 16 0.00 0.00
10:53 am 10:53 Sunny 74 23.3 57 13.9 56 56 ESE 8 13 29.79 1009 10 16 0.00 0.00
11:53 am 11:53 Sunny 80 26.7 56 13.3 44 44 ESE 10 17 29.77 1008 10 16 0.00 0.00
12:53 pm 12:53 Sunny 85 29.4 53 11.7 33 33 ESE 9 15 29.75 1008 10 16 0.00 0.00
1:53 pm 13:53 Sunny 87 30.6 52 11.1 30 30 E 13 20 29.74 1007 10 16 0.00 0.00
2:53 pm 14:53 Sunny 90 32.2 49 9.4 24 24 ESE 12 19 29.72 1006 10 16 0.00 0.00
3:53 pm 15:53 Sunny 93 33.9 46 7.8 20 20 SE 12 19 29.69 1005 10 16 0.00 0.00
4:53 pm 16:53 Mostly Sunny 94 34.4 45 7.2 18 18 SE 10 17 29.66 1005 10 16 0.00 0.00
5:53 pm 17:53 Sunny 94 34.4 46 7.8 19 19 E 14 22 29.65 1004 10 16 0.00 0.00
6:53 pm 18:53 Sunny 93 33.9 46 7.8 20 20 SE 23 37 29.65 1004 10 16 0.00 0.00
7:53 pm 19:53 Sunny 90 32.2 47 8.3 23 23 SE 23 37 29.65 1004 10 16 0.00 0.00
8:53 pm 20:53 Clear 85 29.4 49 9.4 29 29 SE 22 35 29.67 1005 10 16 0.00 0.00
9:53 pm 21:53 Clear 82 27.8 51 10.6 34 34 SE 24 39 29.70 1006 10 16 0.00 0.00
10:53 pm 22:53 Clear 79 26.1 53 11.7 41 41 SE 20 31 29.72 1007 10 16 0.00 0.00
11:53 pm 23:53 Clear 76 24.4 53 11.7 45 45 SE 18 30 29.74 1007 10 16 0.00 0.00

Powered by AerisWeather